Home   Weather   Lehrte   Past weeks

Flag for Germany Past Weather in Lehrte, Lower Saxony, Germany — Yesterday and Last 2 Weeks

Now
48 °F

Fog.


Feels Like: 48 °F
Forecast: 54 / 67 °F
Wind: 1 mph from North

Location: Hannover

Current Time: Sep 27, 2016 at 9:08:34 AM

Latest Report: Sep 27, 2016 at 8:20 AM


Visibility: 0 mi

Pressure: 30.30 "Hg

Humidity: 100%

Dew Point: 48 °F

Location of LehrteLocation

Past Weather in Lehrte — Graph

°F

Lehrte Temperature Yesterday

Maximum temperature yesterday: 68 °F (at 2:20 PM)
Minimum temperature yesterday: 55 °F (at 6:50 AM)
Average temperature yesterday: 61 °F

High & Low Weather Summary for the Past Weeks

 TemperatureHumidityPressure
High90 °F (Sep 13, 2:20 PM)100% (Sep 21, 3:50 AM)30.30 "Hg (Sep 21, 3:50 AM)
Low43 °F (Sep 24, 6:50 AM)29% (Sep 13, 5:50 PM)29.86 "Hg (Sep 15, 5:50 PM)
Average63 °F71%30.07 "Hg
* Reported Sep 12 7:20 AM — Sep 27 7:50 AM, Lehrte, Weather by CustomWeather, © 2016

Note: Actual official high and low records may vary slightly from our data, if they occured in-between our weather recording intervals... More about our weather records

Advertising

Lehrte Weather History for the Previous 24 Hours

Scroll right to see more
 ConditionsComfort  
Time TempWeatherWind HumidityBarometerVisibility
7:50 AM
Tue, Sep 27
48 °FFog.1 mph100%30.27 "Hg1 mi
7:20 AM48 °FScattered clouds.No wind100%30.27 "Hg1 mi
6:50 AM48 °FFog.3 mph94%30.27 "Hg1 mi
6:20 AM48 °FFog.2 mph100%30.27 "Hg1 mi
5:50 AM50 °FCool.No wind94%30.27 "Hg2 mi
5:20 AM52 °FCool.2 mph94%30.24 "Hg3 mi
4:50 AM52 °FCool.2 mph100%30.24 "Hg3 mi
4:20 AM52 °FFog.5 mph94%30.24 "HgN/A
3:50 AM54 °FFog.5 mph94%30.24 "Hg6 mi
3:20 AM52 °FFog.5 mph100%30.24 "HgN/A
2:50 AM55 °FFog.1 mph94%30.24 "HgN/A
2:20 AM55 °FPassing clouds.3 mph94%30.24 "HgN/A
1:50 AM55 °FPartly cloudy.2 mph94%30.24 "HgN/A
1:20 AM57 °FPartly cloudy.3 mph88%30.24 "HgN/A
12:50 AM57 °FPartly cloudy.2 mph88%30.24 "HgN/A
12:20 AM57 °FPassing clouds.1 mph88%30.24 "HgN/A
11:50 PM
Mon, Sep 26
59 °FPassing clouds.2 mph82%30.21 "HgN/A
11:20 PM59 °FClear.1 mph82%30.24 "Hg10 mi
10:50 PM59 °FClear.1 mph82%30.24 "Hg10 mi
10:20 PM59 °FPassing clouds.3 mph82%30.24 "HgN/A
9:50 PM61 °FPartly cloudy.5 mph77%30.21 "HgN/A
9:20 PM61 °FPassing clouds.6 mph77%30.21 "HgN/A
8:50 PM61 °FPassing clouds.5 mph77%30.21 "HgN/A
8:20 PM61 °FPassing clouds.5 mph77%30.21 "HgN/A
7:50 PM63 °FClear.5 mph73%30.21 "Hg10 mi
7:20 PM64 °FClear.3 mph68%30.21 "Hg10 mi
6:50 PM64 °FSunny.3 mph68%30.21 "Hg10 mi
6:20 PM64 °FPartly sunny.3 mph68%30.21 "HgN/A
5:50 PM66 °FPartly sunny.5 mph64%30.21 "HgN/A
5:20 PM66 °FScattered clouds.5 mph64%30.21 "HgN/A
4:50 PM68 °FBroken clouds.3 mph56%30.18 "HgN/A
4:20 PM66 °FBroken clouds.5 mph64%30.21 "HgN/A
3:50 PM66 °FBroken clouds.5 mph64%30.21 "HgN/A
3:20 PM68 °FBroken clouds.5 mph60%30.21 "HgN/A
2:50 PM66 °FScattered clouds.3 mph60%30.21 "HgN/A
2:20 PM68 °FScattered clouds.5 mph60%30.21 "HgN/A
1:50 PM64 °FBroken clouds.5 mph68%30.21 "HgN/A
1:20 PM66 °FPartly sunny.6 mph68%30.21 "HgN/A
12:50 PM64 °FPartly sunny.5 mph73%30.21 "HgN/A
12:20 PM63 °FPartly sunny.6 mph77%30.21 "HgN/A
11:50 AM61 °FBroken clouds.8 mph83%30.21 "HgN/A
11:20 AM61 °FBroken clouds.9 mph83%30.21 "HgN/A
10:50 AM59 °FBroken clouds.6 mph88%30.21 "HgN/A
10:20 AM59 °FSunny.6 mph88%30.21 "Hg10 mi
9:50 AM59 °FSunny.5 mph88%30.21 "Hg10 mi
9:20 AM57 °FPassing clouds.3 mph88%30.18 "HgN/A
Weather by CustomWeather, © 2016

See weather overviewHow to use our weather pages